[[{"header":{"parameterUnit":"m.s-1","parameterCategory":1,"la1":30.2991,"la2":30.254,"lo1":-89.0895,"lo2":-89.0444,"dx":0.0017,"dy":0.0017,"nx":28,"ny":28,"refTime":"2022-11-12T09:00:00:Z","depth":0,"parameterNumber":2,"parameterNumberName":"U-component_of_WINDS"},"data":[0,0,0,0,0,0,0,0,0,0,0,0,0,0,0,0,0,0,0,0,0,0,0,0,0,0,0,0,0,0,0,0,0,0,0,0,0,0,0,0,0,0,0,0,0,0,0,0,0,0,0,0,0,0,0,0,0,0,2.1676,2.1676,0,2.1685,2.1685,2.1685,2.1658,2.1657,2.1657,2.1656,2.1665,2.1666,2.1667,0,0,0,0,0,0,0,0,0,0,0,0,0,2.1637,2.1638,2.1676,2.1676,2.1676,2.1685,2.1685,2.1685,2.1658,2.1657,2.1656,2.1655,2.1665,2.1666,2.1668,0,0,0,0,0,0,0,0,0,0,0,0,0,2.1651,2.1638,2.1676,2.1664,2.1663,2.1685,2.1685,2.1685,2.1659,2.1657,2.1656,2.1655,2.1665,2.1666,2.1668,2.1702,0,0,2.1672,2.1673,0,0,0,0,0,0,0,0,2.165,2.1652,2.1665,2.1665,2.1664,2.1669,2.1675,2.1691,2.1659,2.166,2.1656,2.1654,2.1668,2.1669,2.1673,2.1702,2.1702,2.1672,2.1673,2.1674,2.1674,0,0,0,0,0,0,0,2.1649,2.1652,2.1679,2.1666,2.1665,2.1659,2.1659,2.1678,2.1671,2.166,2.1658,2.166,2.1667,2.1672,2.1673,2.1703,2.1672,2.1674,2.1675,2.1675,2.1762,2.1763,0,0,0,0,0,0,2.165,2.1651,2.1679,2.168,2.1654,2.166,2.1661,2.1669,2.167,2.167,2.1661,2.1658,2.167,2.1672,2.1674,2.1714,2.1674,2.1675,2.1676,2.176,2.1762,2.1763,0,0,0,0,0,0,2.1649,2.1653,2.1679,2.1665,2.1668,2.1662,2.1671,2.1669,2.1674,2.1671,2.167,2.1667,2.1669,2.1671,2.1695,2.1714,2.1676,2.1678,2.1759,2.1761,2.1763,2.1795,0,0,0,0,0,0,2.1648,2.1652,2.1665,2.1665,2.1669,2.17,2.1672,2.167,2.1677,2.1674,2.1676,2.1676,2.1668,2.1693,2.1697,2.1715,2.1679,2.1757,2.176,2.1762,2.1792,2.1798,2.1803,0,0,0,0,0,2.1647,2.1673,2.1665,2.1669,2.1684,2.1701,2.1703,2.1693,2.1679,2.1691,2.1689,2.1675,2.1712,2.1696,2.17,2.1719,2.1756,2.1759,2.1762,2.179,2.1797,2.1803,0,0,0,0,0,0,2.1674,2.1673,2.1664,2.1692,2.1697,2.1696,2.1712,2.1701,2.171,2.1707,2.1696,2.1697,2.1723,2.1723,2.1706,2.1753,2.1731,2.1735,2.1751,2.1758,2.1763,2.1762,2.168,0,0,0,0,0,2.1684,2.1697,2.1695,2.172,2.1723,2.1717,2.1724,2.1717,2.1721,2.1723,2.1723,2.1729,2.1741,2.175,2.1761,2.1793,2.1793,2.1808,2.1814,2.1818,2.1821,2.1839,2.1846,2.1773,2.1773,2.1773,0,0,2.1703,2.1704,2.1713,2.1725,2.1728,2.1743,2.1719,2.1735,2.1746,2.1726,2.1748,2.1749,2.1754,2.1782,2.1795,2.1784,2.1842,2.1822,2.1825,2.1826,2.1843,2.185,2.1856,2.1776,2.1775,2.1775,0,0,2.1745,2.1747,2.1768,2.1772,2.1777,2.1773,2.1779,2.178,2.178,2.1803,2.1788,2.1802,2.1823,2.1828,2.1833,2.188,2.1868,2.1885,2.1912,2.193,2.1935,2.194,2.1957,2.1964,2.1888,2.1888,2.1888,0,2.1768,2.1789,2.178,2.1798,2.1804,2.1788,2.1809,2.1813,2.1822,2.1827,2.1815,2.1843,2.1845,2.1875,2.1887,2.1892,2.1898,2.1884,2.1935,2.194,2.1945,2.1961,2.1967,2.189,2.189,2.189,2.189,0,2.1818,2.1833,2.185,2.1859,2.1867,2.1887,2.1881,2.1891,2.1884,2.1882,2.1906,2.1909,2.1921,2.1928,2.1921,2.1957,2.195,2.1937,2.1915,2.1954,2.1969,2.1975,2.1893,2.1892,2.1892,2.1891,0,0,2.1876,2.1881,2.1887,2.1892,2.1897,2.1909,2.1929,2.1941,2.195,2.1958,2.1974,2.1994,2.1983,2.1989,2.1982,2.1998,2.2036,2.1983,2.1983,2.1993,2.2077,2.2087,2.2094,2.2029,2.203,2.2031,2.2077,0,2.1918,2.1951,2.1944,2.1977,2.1992,2.1977,2.1995,2.2,2.2,2.2013,2.2012,2.2027,2.201,2.2013,2.2028,2.2028,2.2053,2.2025,2.2044,2.2045,2.2043,2.2102,2.2112,2.2155,2.2082,2.2083,2.2084,0,2.197,2.198,2.2015,2.2019,2.2025,2.2041,2.2052,2.2065,2.2072,2.207,2.2078,2.207,2.209,2.2069,2.2098,2.2079,2.2087,2.2088,2.209,2.2091,2.2066,2.2104,2.2168,2.2175,2.2093,2.2093,2.2092,0,2.2009,2.2031,2.2055,2.2059,2.2065,2.2077,2.208,2.2086,2.2094,2.2105,2.211,2.2123,2.213,2.2141,2.2136,2.2121,2.2166,2.2144,2.2166,2.2166,2.2175,2.2175,2.2241,2.2181,2.2181,2.2181,2.2181,0,2.2056,2.2078,2.2073,2.2087,2.2112,2.2105,2.2129,2.2131,2.2136,2.2152,2.214,2.2155,2.2148,2.2163,2.216,2.2185,2.2188,2.2188,2.2186,2.2188,2.2188,2.2193,2.2189,2.2183,2.2182,2.2182,2.2182,0,2.2103,2.21,2.2125,2.213,2.2131,2.2149,2.2153,2.2167,2.2167,2.2186,2.2191,2.219,2.2207,2.2204,2.2222,2.222,2.2251,2.2246,2.2248,2.2247,2.2269,2.2267,2.2341,2.235,2.2284,2.2285,2.2286,0,2.2133,2.2149,2.2156,2.2165,2.2169,2.2185,2.2194,2.2188,2.2198,2.2208,2.2222,2.2237,2.225,2.2277,2.2279,2.2293,2.2289,2.2314,2.2291,2.2292,2.2289,2.2288,2.229,2.2318,2.2318,2.2319,2.2319,0,2.2186,2.2184,2.2197,2.2211,2.2222,2.2232,2.2241,2.2249,2.2245,2.2257,2.2274,2.2284,2.2303,2.2319,2.2333,2.2337,2.2328,2.2327,2.2333,2.2334,2.2335,2.2335,2.226,2.2325,2.2324,2.2324,2.2324,2.2323,2.2225,2.2239,2.2247,2.2262,2.2269,2.2278,2.2292,2.2294,2.2308,2.2323,2.2319,2.2339,2.2348,2.2366,2.2371,2.2387,2.2378,2.2386,2.2388,2.239,2.2393,2.2333,2.239,2.239,2.2389,2.2389,2.2389,0,2.2277,2.2282,2.2296,2.231,2.2323,2.2313,2.2324,2.2335,2.2352,2.2361,2.2374,2.2394,2.2411,2.2414,2.243,2.2442,2.2438,2.2446,2.2445,2.2446,2.24,2.2394,2.2449,2.2449,2.2449,2.2449,2.2449,2.2449,2.2306,2.233,2.233,2.2358,2.2363,2.2382,2.2389,2.2398,2.2405,2.2428,2.2442,2.2444,2.2451,2.2468,2.2483,2.2483,2.249,2.2499,2.2498,2.2455,2.2449,2.2444,2.2437,2.2501,2.2501,2.2543,2.2543,2.2544]},{"header":{"parameterUnit":"m.s-1","parameterCategory":1,"la1":30.2991,"la2":30.254,"lo1":-89.0895,"lo2":-89.0444,"dx":0.0017,"dy":0.0017,"nx":28,"ny":28,"refTime":"2022-11-12T09:00:00:Z","depth":0,"parameterNumber":3,"parameterNumberName":"V-component_of_WINDS"},"data":[0,0,0,0,0,0,0,0,0,0,0,0,0,0,0,0,0,0,0,0,0,0,0,0,0,0,0,0,0,0,0,0,0,0,0,0,0,0,0,0,0,0,0,0,0,0,0,0,0,0,0,0,0,0,0,0,0,0,-7.2043,-7.2044,0,-7.2191,-7.2193,-7.2194,-7.2157,-7.2154,-7.2151,-7.2149,-7.2293,-7.2299,-7.2305,0,0,0,0,0,0,0,0,0,0,0,0,0,-7.1719,-7.1725,-7.2043,-7.2044,-7.2046,-7.2191,-7.2193,-7.2195,-7.2158,-7.2154,-7.2151,-7.2147,-7.229,-7.2298,-7.2306,0,0,0,0,0,0,0,0,0,0,0,0,0,-7.1863,-7.1727,-7.2042,-7.2045,-7.2047,-7.219,-7.2193,-7.2195,-7.2158,-7.2154,-7.215,-7.2146,-7.2288,-7.2297,-7.2307,-7.2454,0,0,-7.2337,-7.2341,0,0,0,0,0,0,0,0,-7.1854,-7.1874,-7.2043,-7.2045,-7.2048,-7.2151,-7.2132,-7.2282,-7.216,-7.2116,-7.2149,-7.2144,-7.2249,-7.2261,-7.2298,-7.2461,-7.2467,-7.2338,-7.2344,-7.2348,-7.2351,0,0,0,0,0,0,0,-7.1845,-7.1868,-7.2101,-7.2045,-7.2048,-7.2037,-7.2052,-7.216,-7.2204,-7.2119,-7.2117,-7.2136,-7.2249,-7.2289,-7.2301,-7.2469,-7.2338,-7.2346,-7.2352,-7.2356,-7.2758,-7.2762,0,0,0,0,0,0,-7.1834,-7.186,-7.2096,-7.2105,-7.1939,-7.2046,-7.2064,-7.2122,-7.2203,-7.2212,-7.2139,-7.2133,-7.2274,-7.229,-7.2306,-7.2483,-7.2348,-7.2357,-7.2363,-7.2753,-7.2759,-7.2764,0,0,0,0,0,0,-7.1827,-7.1855,-7.209,-7.1982,-7.2011,-7.2056,-7.2123,-7.2128,-7.2168,-7.2218,-7.2225,-7.2173,-7.2272,-7.2293,-7.2418,-7.2488,-7.2361,-7.237,-7.2747,-7.2755,-7.2762,-7.2838,0,0,0,0,0,0,-7.1818,-7.1853,-7.1911,-7.1984,-7.2017,-7.2202,-7.2127,-7.2134,-7.2186,-7.2179,-7.2251,-7.2259,-7.227,-7.2404,-7.2428,-7.2499,-7.2378,-7.2741,-7.2751,-7.2759,-7.283,-7.2847,-7.2862,0,0,0,0,0,-7.1807,-7.1925,-7.1914,-7.1943,-7.2091,-7.2206,-7.2225,-7.2237,-7.2192,-7.2249,-7.2281,-7.2257,-7.2476,-7.2417,-7.2443,-7.2519,-7.2737,-7.2748,-7.2759,-7.2823,-7.2844,-7.2862,0,0,0,0,0,0,-7.1857,-7.1935,-7.1924,-7.207,-7.2132,-7.22,-7.2273,-7.226,-7.2334,-7.2325,-7.2334,-7.2351,-7.2479,-7.2511,-7.2443,-7.2665,-7.26,-7.2616,-7.2639,-7.266,-7.2676,-7.2665,-7.2386,0,0,0,0,0,-7.1886,-7.1975,-7.2037,-7.216,-7.2192,-7.2228,-7.2278,-7.2282,-7.2346,-7.2371,-7.2412,-7.2473,-7.2555,-7.2609,-7.2688,-7.2834,-7.2849,-7.2899,-7.2915,-7.2929,-7.2943,-7.3021,-7.3044,-7.28,-7.28,-7.2799,0,0,-7.1944,-7.1998,-7.2054,-7.2172,-7.222,-7.231,-7.225,-7.2347,-7.2413,-7.2385,-7.2507,-7.2539,-7.2607,-7.2743,-7.2805,-7.2774,-7.3013,-7.2942,-7.2953,-7.296,-7.3035,-7.3058,-7.3079,-7.2807,-7.2806,-7.2805,0,0,-7.2098,-7.2149,-7.2257,-7.2307,-7.2383,-7.2405,-7.2431,-7.2502,-7.2523,-7.2646,-7.2626,-7.2703,-7.2846,-7.2895,-7.2938,-7.3111,-7.3091,-7.3136,-7.3221,-7.3298,-7.3317,-7.3334,-7.3395,-7.3417,-7.315,-7.315,-7.315,0,-7.2161,-7.2299,-7.2313,-7.2414,-7.2465,-7.2447,-7.2555,-7.2602,-7.2698,-7.2733,-7.2697,-7.2876,-7.292,-7.3067,-7.311,-7.3146,-7.3174,-7.3128,-7.3314,-7.3331,-7.3347,-7.3405,-7.3428,-7.3155,-7.3155,-7.3154,-7.3154,0,-7.2373,-7.2468,-7.2546,-7.2643,-7.2703,-7.2806,-7.2834,-7.2893,-7.2892,-7.2917,-7.3042,-7.3094,-7.3183,-7.3219,-7.3218,-7.3366,-7.3344,-7.3311,-7.3246,-7.3375,-7.343,-7.3452,-7.3162,-7.3161,-7.3159,-7.3158,0,0,-7.2562,-7.2666,-7.2694,-7.2737,-7.2819,-7.2892,-7.2994,-7.3084,-7.3134,-7.32,-7.3284,-7.3406,-7.3376,-7.3425,-7.3429,-7.3497,-7.363,-7.3455,-7.3457,-7.3485,-7.3795,-7.3819,-7.3845,-7.3617,-7.3621,-7.3625,-7.3789,0,-7.2722,-7.2905,-7.2921,-7.3084,-7.3171,-7.3155,-7.3243,-7.3301,-7.3328,-7.3404,-7.3432,-7.3518,-7.3472,-7.3502,-7.3568,-7.36,-7.3692,-7.3588,-7.3693,-7.3697,-7.3677,-7.3873,-7.3899,-7.4052,-7.381,-7.3814,-7.3817,0,-7.2934,-7.301,-7.3183,-7.3253,-7.329,-7.337,-7.3453,-7.3527,-7.3592,-7.3606,-7.3662,-7.3657,-7.3759,-7.3691,-7.3831,-7.376,-7.3803,-7.3825,-7.3831,-7.3841,-7.3764,-7.3888,-7.4101,-7.4124,-7.3851,-7.3848,-7.3845,0,-7.3054,-7.32,-7.3322,-7.3359,-7.3444,-7.35,-7.3538,-7.3599,-7.3652,-7.3723,-7.3757,-7.3839,-7.3884,-7.3946,-7.3962,-7.3911,-7.4101,-7.4034,-7.4114,-7.4114,-7.4154,-7.4151,-7.4377,-7.4184,-7.4183,-7.4183,-7.4182,0,-7.3232,-7.3338,-7.3377,-7.3452,-7.357,-7.3585,-7.3701,-7.3734,-7.3789,-7.3868,-7.3857,-7.3931,-7.3949,-7.4026,-7.4039,-7.4152,-7.4172,-7.4185,-7.4187,-7.4186,-7.4184,-7.4214,-7.4203,-7.4189,-7.4188,-7.4186,-7.4185,0,-7.3385,-7.3416,-7.3548,-7.3618,-7.3638,-7.3722,-7.378,-7.3851,-7.3877,-7.3977,-7.4001,-7.404,-7.413,-7.4153,-7.4259,-7.4268,-7.4401,-7.4394,-7.4381,-7.438,-7.4458,-7.445,-7.4711,-7.4745,-7.453,-7.4532,-7.4533,0,-7.3497,-7.3578,-7.3658,-7.3712,-7.3753,-7.3839,-7.3894,-7.3912,-7.3968,-7.4049,-7.411,-7.4199,-7.4271,-7.4415,-7.4451,-7.4532,-7.4525,-7.4611,-7.4537,-7.4533,-7.4526,-7.4521,-7.4528,-7.4625,-7.4627,-7.4629,-7.463,0,-7.369,-7.3702,-7.3782,-7.3869,-7.3935,-7.4003,-7.4068,-7.4112,-7.4139,-7.4203,-7.4296,-7.4353,-7.4463,-7.455,-7.4632,-7.4667,-7.4653,-7.4653,-7.4676,-7.4675,-7.4664,-7.4671,-7.4418,-7.4647,-7.4645,-7.4644,-7.4643,-7.4643,-7.3826,-7.3897,-7.3965,-7.4055,-7.4107,-7.4168,-7.4238,-7.4273,-7.4353,-7.4445,-7.445,-7.4551,-7.4613,-7.4722,-7.4762,-7.4839,-7.4813,-7.4846,-7.4854,-7.4862,-7.4869,-7.4653,-7.4854,-7.4854,-7.4853,-7.4853,-7.4853,0,-7.4018,-7.4061,-7.4144,-7.4237,-7.4308,-7.4291,-7.4362,-7.4421,-7.4511,-7.4572,-7.4644,-7.475,-7.4835,-7.4879,-7.4963,-7.5016,-7.5012,-7.5038,-7.5033,-7.5042,-7.4888,-7.4859,-7.504,-7.504,-7.504,-7.504,-7.504,-7.504,-7.4127,-7.4248,-7.4267,-7.4412,-7.4453,-7.4555,-7.4597,-7.4652,-7.4701,-7.4821,-7.4893,-7.4922,-7.4975,-7.5063,-7.5139,-7.5149,-7.518,-7.521,-7.5216,-7.5072,-7.5052,-7.5034,-7.5008,-7.5217,-7.5217,-7.5364,-7.5365,-7.5366]}]]